Weather in Bunkovo

Russia / Ivanovo Oblast     57°03′55″N   40°42′22″E
temp.,
°C
wind,
m/s
gust,
m/s
humid.,
%
clouds,
%
prec.,
mm/h
press.,
hPa
HPBL,
m
13 august, sat
sat1300:00+16wnw237593 0.0 102355
03:00+15nw228185 0.0 102333
06:00+15nw118136 0.0 102328
09:00+22nw115898 0.0 1023465
12:00+26nw1246100 0.0 10221537
15:00+27nw2243100 0.0 10211937
18:00+25nw2256100 0.0 102073
21:00+20w1165100 0.0 102111
14 august, sun
sun1400:00+19nne1169100 0.0 102111
03:00+17ese1173100 0.0 102111
06:00+18sse1175100 0.0 102114
09:00+23e1156100 0.0 1021391
12:00+27ese124299 0.0 10211961
15:00+28ese113582 0.0 10202395
18:00+26ese234970 0.0 1020107
21:00+22ese2554100 0.0 1020102
15 august, mon
mon1500:00+20ese226695 0.0 102138
03:00+19ese236798 0.0 102167
06:00+19ese257191 0.0 1022117
09:00+23se245860 0.0 1022368
12:00+28se233985 0.0 10222123
15:00+28ese224074 0.0 10221955
18:00+25se245547 0.0 1022166
21:00+20ese256498 0.0 102383
16 august, tue
tue1600:00+19se247199 0.0 102473
03:00+18ese247399 0.0 102473
06:00+18se247498 0.0 102594
09:00+23se345498 0.0 1025420
12:00+27se344166 0.0 10251474
15:00+28se343668 0.0 10232567
18:00+26se25456 0.0 1023197
21:00+19ese37651 0.0 1024116
17 august, wed
wed1700:00+18ese26717 0.0 1024108
03:00+17ese23725 0.0 102459
06:00+17se25776 0.0 1024108
09:00+23se23522 0.0 1024471
12:00+27se45400 0.0 10221890
15:00+28se34340 0.0 10212134
18:00+25e24450 0.0 1021186
21:00+19e37620 0.0 1021112